UAE77Q OMDB-OOMS

Flight info

Callsign UAE77Q
Flight time 0h 44m
Altitude 25000
Route ANVIX L223 TARDI N629 MUSUK T511 MCT
Aircraft A359/H-SDE2E3GHIJ1J3J4J5LM1ORWXY/LB1D1

Departure

Time 2026-05-05 23:13
Airport Dubai International Airport (OMDB)

Arrival

Time 2026-05-05 23:57
Airport Muscat International Airport (OOMS)
Time Latitude Longitude Altitude Speed Heading
2026-05-05 22:35 25.25405 55.35019 27 ft 0 kts 31°
2026-05-05 23:01 25.25403 55.35017 27 ft 3 kts 31°
2026-05-05 23:02 25.25380 55.35002 27 ft 4 kts 31°
2026-05-05 23:02 25.25361 55.34989 27 ft 4 kts 22°
2026-05-05 23:02 25.25338 55.34987 27 ft 4 kts 328°
2026-05-05 23:02 25.25320 55.35007 27 ft 3 kts 301°
2026-05-05 23:03 25.25307 55.35031 27 ft 4 kts 301°
2026-05-05 23:03 25.25303 55.35039 27 ft 0 kts 301°
2026-05-05 23:05 25.25304 55.35036 27 ft 2 kts 302°
2026-05-05 23:05 25.25321 55.35006 27 ft 8 kts 301°
2026-05-05 23:06 25.25366 55.34930 27 ft 16 kts 312°
2026-05-05 23:06 25.25482 55.34908 27 ft 19 kts 27°
2026-05-05 23:06 25.25602 55.34988 27 ft 21 kts 32°
2026-05-05 23:06 25.25713 55.35064 27 ft 14 kts 34°
2026-05-05 23:07 25.25744 55.35157 27 ft 14 kts 84°
2026-05-05 23:07 25.25807 55.35239 27 ft 15 kts 32°
2026-05-05 23:07 25.25903 55.35305 28 ft 17 kts 32°
2026-05-05 23:07 25.26007 55.35379 28 ft 18 kts 49°
2026-05-05 23:08 25.26007 55.35512 28 ft 19 kts 113°
2026-05-05 23:08 25.25940 55.35642 28 ft 20 kts 121°
2026-05-05 23:08 25.25862 55.35781 28 ft 22 kts 121°
2026-05-05 23:08 25.25779 55.35930 29 ft 23 kts 122°
2026-05-05 23:09 25.25691 55.36086 29 ft 25 kts 122°
2026-05-05 23:09 25.25598 55.36252 29 ft 26 kts 122°
2026-05-05 23:09 25.25504 55.36418 28 ft 25 kts 122°
2026-05-05 23:09 25.25411 55.36583 28 ft 26 kts 122°
2026-05-05 23:10 25.25313 55.36759 28 ft 27 kts 122°
2026-05-05 23:10 25.25212 55.36937 28 ft 24 kts 121°
2026-05-05 23:10 25.25127 55.37090 29 ft 24 kts 122°
2026-05-05 23:10 25.25037 55.37250 29 ft 25 kts 121°
2026-05-05 23:11 25.24942 55.37418 30 ft 26 kts 122°
2026-05-05 23:11 25.24846 55.37590 29 ft 26 kts 122°
2026-05-05 23:11 25.24749 55.37761 29 ft 27 kts 122°
2026-05-05 23:11 25.24671 55.37923 29 ft 21 kts 93°
2026-05-05 23:12 25.24758 55.38019 31 ft 14 kts 30°
2026-05-05 23:12 25.24824 55.37987 31 ft 10 kts 306°
2026-05-05 23:12 25.24826 55.37984 31 ft 0 kts 306°
2026-05-05 23:12 25.24937 55.37793 32 ft 67 kts 300°
2026-05-05 23:13 25.25302 55.37132 32 ft 133 kts 302°
2026-05-05 23:13 25.25889 55.36080 118 ft 181 kts 302°
2026-05-05 23:13 25.26525 55.34928 999 ft 171 kts 302°
2026-05-05 23:13 25.27157 55.33772 1514 ft 189 kts 302°
2026-05-05 23:14 25.27889 55.32451 1784 ft 213 kts 302°
2026-05-05 23:14 25.28696 55.31000 2210 ft 229 kts 301°
2026-05-05 23:14 25.29204 55.29312 2839 ft 237 kts 271°
2026-05-05 23:14 25.28825 55.27554 3563 ft 238 kts 245°
2026-05-05 23:15 25.28116 55.25892 4323 ft 240 kts 243°
2026-05-05 23:15 25.27377 55.24232 5070 ft 243 kts 243°
2026-05-05 23:15 25.26638 55.22545 5783 ft 245 kts 243°
2026-05-05 23:15 25.25899 55.20834 6451 ft 248 kts 243°
2026-05-05 23:16 25.25146 55.19108 7114 ft 252 kts 242°
2026-05-05 23:16 25.24133 55.17475 7482 ft 267 kts 226°
2026-05-05 23:16 25.22573 55.16293 7834 ft 279 kts 198°
2026-05-05 23:16 25.20644 55.16154 8366 ft 284 kts 166°
2026-05-05 23:17 25.18925 55.17192 8932 ft 289 kts 135°
2026-05-05 23:17 25.17778 55.19025 9554 ft 292 kts 119°
2026-05-05 23:17 25.16806 55.21006 10174 ft 297 kts 119°
2026-05-05 23:17 25.15783 55.23057 10531 ft 312 kts 119°
2026-05-05 23:18 25.14688 55.25204 10831 ft 329 kts 120°
2026-05-05 23:18 25.13524 55.27442 11152 ft 343 kts 120°
2026-05-05 23:18 25.12309 55.29757 11644 ft 351 kts 120°
2026-05-05 23:18 25.11073 55.32102 12235 ft 356 kts 120°
2026-05-05 23:19 25.09820 55.34473 12925 ft 360 kts 120°
2026-05-05 23:19 25.08553 55.36868 13552 ft 365 kts 120°
2026-05-05 23:19 25.07263 55.39303 14189 ft 368 kts 120°
2026-05-05 23:19 25.05962 55.41754 14807 ft 372 kts 120°
2026-05-05 23:20 25.04643 55.44232 15382 ft 377 kts 120°
2026-05-05 23:20 25.03313 55.46736 15969 ft 381 kts 120°
2026-05-05 23:20 25.01968 55.49268 16548 ft 385 kts 120°
2026-05-05 23:20 25.00605 55.51832 17124 ft 388 kts 120°
2026-05-05 23:21 24.99233 55.54410 17689 ft 392 kts 120°
2026-05-05 23:21 24.97842 55.57021 18240 ft 396 kts 120°
2026-05-05 23:21 24.96441 55.59651 18795 ft 401 kts 120°
2026-05-05 23:21 24.95022 55.62314 19320 ft 405 kts 120°
2026-05-05 23:22 24.93590 55.65000 19849 ft 409 kts 120°
2026-05-05 23:22 24.92143 55.67713 20359 ft 414 kts 120°
2026-05-05 23:22 24.90696 55.70423 20880 ft 418 kts 120°
2026-05-05 23:22 24.89215 55.73195 21378 ft 422 kts 120°
2026-05-05 23:23 24.87696 55.76035 21846 ft 427 kts 120°
2026-05-05 23:23 24.86206 55.78819 22375 ft 430 kts 121°
2026-05-05 23:23 24.84682 55.81668 22841 ft 434 kts 121°
2026-05-05 23:23 24.83142 55.84542 23299 ft 438 kts 121°
2026-05-05 23:24 24.81587 55.87444 23749 ft 442 kts 121°
2026-05-05 23:24 24.80019 55.90367 24202 ft 446 kts 121°
2026-05-05 23:24 24.78358 55.93266 24613 ft 449 kts 127°
2026-05-05 23:24 24.76347 55.95871 24784 ft 442 kts 134°
2026-05-05 23:25 24.74202 55.98231 24795 ft 431 kts 138°
2026-05-05 23:25 24.72009 56.00453 24795 ft 427 kts 139°
2026-05-05 23:25 24.69812 56.02617 24797 ft 427 kts 139°
2026-05-05 23:25 24.67600 56.04798 24797 ft 427 kts 139°
2026-05-05 23:26 24.65399 56.06996 24791 ft 427 kts 139°
2026-05-05 23:26 24.63682 56.08731 24785 ft 427 kts 138°
2026-05-05 23:26 24.61526 56.10928 24791 ft 427 kts 138°
2026-05-05 23:26 24.59356 56.13156 24788 ft 427 kts 138°
2026-05-05 23:27 24.57246 56.15447 24787 ft 427 kts 133°
2026-05-05 23:27 24.55249 56.17868 24786 ft 427 kts 133°
2026-05-05 23:27 24.53285 56.20318 24781 ft 428 kts 132°
2026-05-05 23:27 24.51343 56.22782 24779 ft 428 kts 131°
2026-05-05 23:28 24.49402 56.25265 24778 ft 428 kts 131°
2026-05-05 23:28 24.47467 56.27742 24773 ft 427 kts 131°
2026-05-05 23:28 24.45537 56.30212 24752 ft 426 kts 131°
2026-05-05 23:28 24.43601 56.32683 24754 ft 426 kts 131°
2026-05-05 23:29 24.41666 56.35146 24753 ft 426 kts 131°
2026-05-05 23:29 24.39728 56.37610 24769 ft 426 kts 131°
2026-05-05 23:29 24.37788 56.40072 24751 ft 426 kts 131°
2026-05-05 23:29 24.35853 56.42525 24752 ft 426 kts 131°
2026-05-05 23:30 24.33908 56.44990 24753 ft 426 kts 131°
2026-05-05 23:30 24.31998 56.47411 24752 ft 427 kts 131°
2026-05-05 23:30 24.30054 56.49875 24752 ft 427 kts 131°
2026-05-05 23:30 24.28154 56.52373 24772 ft 427 kts 129°
2026-05-05 23:31 24.26376 56.54986 24752 ft 428 kts 124°
2026-05-05 23:31 24.24723 56.57688 24753 ft 427 kts 120°
2026-05-05 23:31 24.23136 56.60451 24750 ft 428 kts 120°
2026-05-05 23:31 24.21530 56.63204 24748 ft 429 kts 121°
2026-05-05 23:32 24.19873 56.65927 24748 ft 430 kts 122°
2026-05-05 23:32 24.18172 56.68608 24748 ft 429 kts 123°
2026-05-05 23:32 24.16435 56.71269 24748 ft 429 kts 123°
2026-05-05 23:32 24.14682 56.73915 24748 ft 429 kts 124°
2026-05-05 23:33 24.12916 56.76558 24749 ft 430 kts 124°
2026-05-05 23:33 24.11151 56.79193 24748 ft 430 kts 124°
2026-05-05 23:33 24.09383 56.81830 24748 ft 429 kts 124°
2026-05-05 23:33 24.07617 56.84465 24749 ft 430 kts 124°
2026-05-05 23:34 24.05852 56.87103 24749 ft 430 kts 124°
2026-05-05 23:34 24.04089 56.89740 24748 ft 430 kts 124°
2026-05-05 23:34 24.02325 56.92381 24747 ft 430 kts 124°
2026-05-05 23:34 24.00558 56.95019 24748 ft 430 kts 124°
2026-05-05 23:35 23.98790 56.97658 24747 ft 431 kts 124°
2026-05-05 23:35 23.97024 57.00294 24748 ft 429 kts 123°
2026-05-05 23:35 23.95265 57.02919 24748 ft 428 kts 123°
2026-05-05 23:35 23.93503 57.05547 24748 ft 428 kts 123°
2026-05-05 23:36 23.91751 57.08156 24748 ft 427 kts 123°
2026-05-05 23:36 23.89987 57.10785 24748 ft 427 kts 124°
2026-05-05 23:36 23.88229 57.13408 24748 ft 428 kts 123°
2026-05-05 23:36 23.86467 57.16033 24745 ft 428 kts 124°
2026-05-05 23:37 23.84711 57.18651 24615 ft 441 kts 124°
2026-05-05 23:37 23.82886 57.21370 24471 ft 431 kts 124°
2026-05-05 23:37 23.81126 57.23982 24263 ft 426 kts 124°
2026-05-05 23:37 23.79368 57.26598 23738 ft 427 kts 124°
2026-05-05 23:38 23.77634 57.29172 23203 ft 424 kts 123°
2026-05-05 23:38 23.75869 57.31787 22672 ft 420 kts 123°
2026-05-05 23:38 23.74183 57.34326 22167 ft 417 kts 120°
2026-05-05 23:38 23.72865 57.37114 21650 ft 412 kts 106°
2026-05-05 23:39 23.72105 57.40114 21086 ft 409 kts 100°
2026-05-05 23:39 23.71525 57.43141 20562 ft 406 kts 98°
2026-05-05 23:39 23.71015 57.46154 20043 ft 403 kts 97°
2026-05-05 23:39 23.70540 57.49160 19522 ft 400 kts 97°
2026-05-05 23:40 23.70087 57.52145 19004 ft 398 kts 96°
2026-05-05 23:40 23.69645 57.55116 18490 ft 395 kts 96°
2026-05-05 23:40 23.69198 57.58060 17957 ft 393 kts 99°
2026-05-05 23:40 23.68720 57.60863 17459 ft 390 kts 99°
2026-05-05 23:41 23.68238 57.63776 16935 ft 387 kts 99°
2026-05-05 23:41 23.67800 57.66558 16433 ft 384 kts 99°
2026-05-05 23:41 23.67364 57.69418 15915 ft 381 kts 98°
2026-05-05 23:41 23.66942 57.72243 15419 ft 378 kts 98°
2026-05-05 23:42 23.66525 57.75059 14902 ft 375 kts 98°
2026-05-05 23:42 23.66116 57.77841 14544 ft 367 kts 98°
2026-05-05 23:42 23.65714 57.80570 14123 ft 362 kts 98°
2026-05-05 23:42 23.65318 57.83269 13649 ft 359 kts 98°
2026-05-05 23:43 23.64926 57.85945 13155 ft 356 kts 98°
2026-05-05 23:43 23.64535 57.88600 12658 ft 353 kts 98°
2026-05-05 23:43 23.64150 57.91225 12175 ft 350 kts 98°
2026-05-05 23:43 23.63765 57.93846 11679 ft 347 kts 98°
2026-05-05 23:44 23.63387 57.96422 11346 ft 339 kts 99°
2026-05-05 23:44 23.63021 57.98902 11222 ft 324 kts 99°
2026-05-05 23:44 23.62787 58.00485 11135 ft 315 kts 99°
2026-05-05 23:44 23.62344 58.03519 10951 ft 297 kts 99°
2026-05-05 23:45 23.62025 58.05703 10818 ft 287 kts 99°
2026-05-05 23:45 23.61714 58.07829 10551 ft 283 kts 99°
2026-05-05 23:45 23.61406 58.09939 10236 ft 280 kts 99°
2026-05-05 23:45 23.61100 58.12024 9917 ft 278 kts 99°
2026-05-05 23:46 23.60783 58.14161 9732 ft 293 kts 100°
2026-05-05 23:46 23.60558 58.15651 9689 ft 296 kts 100°
2026-05-05 23:46 23.60230 58.17846 9193 ft 291 kts 100°
2026-05-05 23:46 23.59918 58.20009 8759 ft 291 kts 101°
2026-05-05 23:47 23.59584 58.22202 8422 ft 294 kts 101°
2026-05-05 23:47 23.59262 58.24394 8065 ft 292 kts 100°
2026-05-05 23:47 23.59288 58.26605 7747 ft 295 kts 81°
2026-05-05 23:47 23.59865 58.28714 7451 ft 293 kts 73°
2026-05-05 23:48 23.60562 58.30742 7209 ft 276 kts 72°
2026-05-05 23:48 23.61224 58.32646 6837 ft 261 kts 72°
2026-05-05 23:48 23.61854 58.34486 6540 ft 257 kts 73°
2026-05-05 23:48 23.62470 58.36301 6259 ft 255 kts 73°
2026-05-05 23:49 23.63075 58.38106 5976 ft 254 kts 73°
2026-05-05 23:49 23.63685 58.39923 5674 ft 254 kts 73°
2026-05-05 23:49 23.64287 58.41725 5447 ft 250 kts 74°
2026-05-05 23:49 23.64873 58.43469 5277 ft 240 kts 74°
2026-05-05 23:50 23.65442 58.45167 4997 ft 236 kts 75°
2026-05-05 23:50 23.65997 58.46829 4791 ft 229 kts 75°
2026-05-05 23:50 23.66493 58.48458 4682 ft 224 kts 81°
2026-05-05 23:50 23.66567 58.50118 4574 ft 217 kts 105°
2026-05-05 23:51 23.65993 58.51603 4350 ft 210 kts 131°
2026-05-05 23:51 23.64939 58.52604 4202 ft 196 kts 154°
2026-05-05 23:51 23.63666 58.53103 4044 ft 194 kts 169°
2026-05-05 23:51 23.62356 58.53169 4009 ft 188 kts 199°
2026-05-05 23:52 23.61429 58.52219 3984 ft 190 kts 242°
2026-05-05 23:52 23.61091 58.50806 3793 ft 195 kts 261°
2026-05-05 23:52 23.60987 58.49331 3485 ft 196 kts 263°
2026-05-05 23:52 23.60873 58.47847 3159 ft 197 kts 261°
2026-05-05 23:53 23.60752 58.46366 2855 ft 196 kts 261°
2026-05-05 23:53 23.60632 58.44895 2579 ft 194 kts 261°
2026-05-05 23:53 23.60517 58.43443 2329 ft 190 kts 261°
2026-05-05 23:53 23.60403 58.42029 2079 ft 185 kts 264°
2026-05-05 23:54 23.60295 58.40669 1837 ft 174 kts 265°
2026-05-05 23:54 23.60194 58.39396 1617 ft 163 kts 265°
2026-05-05 23:54 23.60097 58.38204 1400 ft 153 kts 266°
2026-05-05 23:54 23.60011 58.37071 1150 ft 146 kts 268°
2026-05-05 23:55 23.59947 58.35985 1011 ft 143 kts 268°
2026-05-05 23:55 23.59826 58.34912 835 ft 143 kts 265°
2026-05-05 23:55 23.59729 58.33836 684 ft 142 kts 269°
2026-05-05 23:55 23.59665 58.32771 475 ft 142 kts 268°
2026-05-05 23:56 23.59568 58.31699 304 ft 142 kts 268°
2026-05-05 23:56 23.59485 58.30631 143 ft 142 kts 266°
2026-05-05 23:56 23.59403 58.29565 51 ft 131 kts 263°
2026-05-05 23:56 23.59338 58.28772 45 ft 80 kts 264°
2026-05-05 23:57 23.59288 58.28216 50 ft 70 kts 265°
2026-05-05 23:57 23.59250 58.27713 48 ft 63 kts 265°
2026-05-05 23:57 23.59214 58.27268 50 ft 49 kts 265°
2026-05-05 23:57 23.59187 58.26958 47 ft 37 kts 264°
2026-05-05 23:58 23.59172 58.26777 51 ft 16 kts 270°
2026-05-05 23:58 23.59225 58.26696 44 ft 14 kts 345°
2026-05-05 23:58 23.59334 58.26683 48 ft 17 kts 355°
2026-05-05 23:58 23.59441 58.26683 47 ft 14 kts 24°
2026-05-05 23:59 23.59470 58.26778 48 ft 15 kts 84°
2026-05-05 23:59 23.59480 58.26899 46 ft 17 kts 85°
2026-05-05 23:59 23.59491 58.27039 51 ft 20 kts 85°
2026-05-05 23:59 23.59503 58.27191 51 ft 15 kts 84°
2026-05-06 00:00 23.59519 58.27249 51 ft 5 kts 52°
2026-05-06 00:00 23.59560 58.27272 47 ft 9 kts 13°
2026-05-06 00:00 23.59636 58.27272 51 ft 12 kts 358°
2026-05-06 00:00 23.59731 58.27263 46 ft 15 kts 354°
2026-05-06 00:01 23.59841 58.27252 46 ft 17 kts 355°
2026-05-06 00:01 23.59968 58.27241 49 ft 19 kts 355°
2026-05-06 00:01 23.60098 58.27229 51 ft 19 kts 355°
2026-05-06 00:01 23.60237 58.27215 49 ft 21 kts 355°
2026-05-06 00:02 23.60355 58.27204 51 ft 13 kts 355°
2026-05-06 00:02 23.60436 58.27228 46 ft 13 kts 65°
2026-05-06 00:02 23.60451 58.27331 51 ft 15 kts 84°
2026-05-06 00:02 23.60461 58.27454 46 ft 18 kts 85°
2026-05-06 00:03 23.60469 58.27571 51 ft 14 kts 90°
2026-05-06 00:03 23.60415 58.27667 50 ft 16 kts 130°
2026-05-06 00:03 23.60338 58.27768 51 ft 18 kts 130°
2026-05-06 00:03 23.60256 58.27874 51 ft 16 kts 130°
2026-05-06 00:04 23.60236 58.27992 51 ft 17 kts 86°
2026-05-06 00:04 23.60247 58.28122 51 ft 13 kts 85°
2026-05-06 00:04 23.60253 58.28201 51 ft 5 kts 85°
2026-05-06 00:04 23.60245 58.28230 47 ft 3 kts 137°
2026-05-06 00:05 23.60190 58.28246 51 ft 4 kts 173°
2026-05-06 00:05 23.60170 58.28249 51 ft 2 kts 174°
2026-05-06 00:05 23.60162 58.28250 49 ft 0 kts 174°
2026-05-06 00:07 23.60138 58.28252 51 ft 0 kts 175°